Kedves Pilóták, Oktatók, Növendékek!

Az alábbi menüpontban szeretnénk összefoglalni néhány fontos és hasznos információt, linket, amely segíthet a repülések megtervezésében.

Ha bármilyen javaslatod van a tartalommal kapcsolatban, kérlek Ez az e-mail-cím a szpemrobotok elleni védelem alatt áll. Megtekintéséhez engedélyeznie kell a JavaScript használatát.meg nekünk.

 

Jó leszállást!

Repüléssel kapcsolatos hírek

IHO.hu - - Repülés RSS

Felhőkép 

Felhőkép

Széltérkép

Széltérkép

Győr-Pér Repülőtér

Élő webkamera kép

 Nagyobb kép

Győr-Pér Repülőtér

[Source: ADDS]
METAR
LHPR 190915Z 27007KT 230V300 8000 NSC 15/10 Q1021 RMK BLU =
LHPR 190815Z 1909/1918 26006KT 5000 BR NSC BECMG 1909/1911 CAVOK
TAF
LHPR 190815Z 1909/1918 26006KT 5000 BR NSC BECMG 1909/1911 CAVOK =
SR / SS: 05:13 / 15:53 UTC (Napkelte / Napnyugta 2018-10-19)

Kapcsolat

Telephely:     9099 Pér, Repülõtér

Klubhelyiség: 9021 Gyõr, Városház tér 3.

E-mail: info@aeroclub-gyor.hu

Telefon: 06-20-777-9106

Adószám: 19113832-2-08

  
Joomla űrlapépítő by JoomlaShine
JSN Metro template designed by JoomlaShine.com